Regional Weather Roundup
Issued by NWS Newport/Morehead, NC

Current Version | Previous Version | Text Only | Print | Product List | Glossary Off
Versions: 1 2 3 4 5 6 7 8 9 10 11 12 13 14 15 16 17 18 19 20 21 22 23 24 25 26 27 28 29 30 31 32 33 34 35 36 37 38 39 40 41 42 43 44 45 46 47 48 49 50
000 ASUS42 KMHX 211525 RWRMHX WEATHER ROUNDUP FOR EASTERN NORTH CAROLINA NATIONAL WEATHER SERVICE NEWPORT/MOREHEAD CITY NC 1000 AM EST TUE FEB 21 2017 NOTE: "FAIR" INDICATES FEW OR NO CLOUDS BELOW 12,000 FEET WITH NO SIGNIFICANT WEATHER AND/OR OBSTRUCTIONS TO VISIBILITY NCZ015>017-031-032-045>047-102-103-211600- NORTH COAST CITY SKY/WX TMP DP RH WIND PRES REMARKS EDENTON CLOUDY 56 42 58 E13 30.30S ELIZABETH CITY MOSUNNY 55 40 56 E12 30.31S KITTY HAWK NOT AVBL MANTEO MOSUNNY 53 42 66 E14 30.29S $$ NCZ045>047-081-094-103-104-211600- CENTRAL COAST CITY SKY/WX TMP DP RH WIND PRES REMARKS FRISCO SUNNY 62 50 64 NE8 30.25F $$ NCZ095-097-098-100-101-211600- SOUTHERN COAST CITY SKY/WX TMP DP RH WIND PRES REMARKS BEAUFORT MOSUNNY 59 49 69 NE10 30.25F CEDAR ISLAND NOT AVBL JACKSONVILLE PTSUNNY 54 45 71 CALM 30.26S PINEY ISLAND SUNNY N/A N/A N/A NE15G21 30.25F WILMINGTON MOSUNNY 58 46 64 NE5 30.25S $$ NCZ011>013-027>030-043-044-078>080-089-090>093-098-211600- COASTAL PLAIN CITY SKY/WX TMP DP RH WIND PRES REMARKS AHOSKIE N/A 52 40 64 NE6 30.30S CLINTON CLOUDY 54 43 66 E5 30.27S ELIZABETHTOWN MOSUNNY 56 46 69 E5 30.25F GOLDSBORO MOSUNNY 55 41 59 E7 30.25F GREENVILLE SUNNY 55 41 58 E8 30.29S HAVELOCK MOSUNNY 57 46 66 NE10 30.27S KENANSVILLE NOT AVBL KINSTON MOSUNNY 55 43 62 E7 30.28F NEW BERN SUNNY 55 46 71 E7 30.28F RICHLANDS MOSUNNY 55 44 66 NE8 30.27S ROCKY MOUNT PTSUNNY 52 40 63 E6 30.29F WASHINGTON SUNNY 54 43 66 E7 30.28F WHITEVILLE MOSUNNY 58 47 65 E7 30.24S $$ AMZ130-135-150-152-154-156-158-170-250-252-270-ANZ085-086-088-633-658-670-211600- MARINE OBSERVATIONS STATION/POSITION TIME TEMP WIND PRES WAVE SWELL AIR SEA DIR/SP/G HT/PER HT/PER (UTC) (F) (DEG/KT/KT) (MB) (FT/S) (FT/S) CHESAPEAKE LIGHT NOT AVBL 64 E VA BEACH 1450 51 54 70/ 14/ 17 1025.8 4/ 7 3/ 7 DUCK 1500 49 48 50/ 13/ 15 1025.3 2 E DUCK 1500 48 N/A 3/ 6 OREGON INLET 1500 51 51 30/ 12/ 15 1025.1 13E OREGON INLT NOT AVBL HATTERAS CG 1500 55 58 30/ 10/ 14 1024.0 DIAMOND BUOY 1450 64 75 90/ 12/ 16 1024.0 6/10 5/10 CAPE LOOKOUT 1500 55 30/ 15/ 17 1023.8 BEAUFORT LAB 1500 57 53 40/ 8/ 14 1023.2 30 SE NEW RVR IN 1408 57 50/ 14/ 19 1024.0 30 SE NEW RVR IN 1443 67 N/A 4/ 5 27 SE WRIGHTSVLE 1508 59 63 60/ 14/ 21 1023.2 5 SE WRIGHTSVLE 1508 54 56 40/ 12/ 17 1024.1 225 S CAPE HAT 1450 66 70 70/ 16/ 19 1022.1 5/ 7 2/11 41 SE CHARLESTON 1450 68 67 90/ 16/ 17 1021.7 4/ 6 $$

USA.gov is the U.S. government's official web portal to all federal, state and local government web resources and services.